Time,TemperatureF,DewpointF,PressureIn,WindDirection,WindDirectionDegrees,WindSpeedMPH,WindSpeedGustMPH,Humidity,HourlyPrecipIn,Conditions,Clouds,dailyrainin,SoftwareType,DateUTC
2013-05-11 00:09:00,57.0,55.0,29.96,SSE,165,1.0,4.0,92,0.00,,,0.00,weatherlink.com 1.10,2013-05-11 04:09:00,
2013-05-11 00:24:00,57.0,55.0,29.96,SSW,208,0.0,2.0,93,0.00,,,0.00,weatherlink.com 1.10,2013-05-11 04:24:00,
2013-05-11 00:39:00,57.2,55.0,29.96,WSW,243,0.0,5.0,93,0.00,,,0.00,weatherlink.com 1.10,2013-05-11 04:39:00,
2013-05-11 00:54:00,57.3,55.0,29.96,SSE,166,1.0,3.0,93,0.00,,,0.00,weatherlink.com 1.10,2013-05-11 04:54:00,
2013-05-11 01:10:00,57.4,55.0,29.95,SSE,168,0.0,4.0,93,0.00,,,0.00,weatherlink.com 1.10,2013-05-11 05:10:00,
2013-05-11 01:25:00,57.6,56.0,29.95,South,172,0.0,4.0,94,0.00,,,0.00,weatherlink.com 1.10,2013-05-11 05:25:00,
2013-05-11 01:40:00,57.8,56.0,29.94,South,182,0.0,2.0,95,0.00,,,0.00,weatherlink.com 1.10,2013-05-11 05:40:00,
2013-05-11 01:55:00,57.8,56.0,29.94,South,173,1.0,2.0,95,0.00,,,0.00,weatherlink.com 1.10,2013-05-11 05:55:00,
2013-05-11 02:10:00,57.3,56.0,29.93,ESE,118,1.0,2.0,95,0.00,,,0.00,weatherlink.com 1.10,2013-05-11 06:10:00,
2013-05-11 02:25:00,56.9,56.0,29.93,South,184,0.0,2.0,96,0.00,,,0.00,weatherlink.com 1.10,2013-05-11 06:25:00,
2013-05-11 02:40:00,56.7,56.0,29.93,South,179,0.0,1.0,96,0.00,,,0.00,weatherlink.com 1.10,2013-05-11 06:40:00,
2013-05-11 02:55:00,56.3,55.0,29.92,South,177,0.0,3.0,96,0.00,,,0.00,weatherlink.com 1.10,2013-05-11 06:55:00,
2013-05-11 03:10:00,56.4,55.0,29.92,SSE,165,0.0,1.0,96,0.00,,,0.00,weatherlink.com 1.10,2013-05-11 07:10:00,
2013-05-11 03:25:00,56.1,55.0,29.91,South,185,0.0,3.0,96,0.00,,,0.00,weatherlink.com 1.10,2013-05-11 07:25:00,
2013-05-11 03:40:00,55.4,54.0,29.91,South,185,2.0,3.0,96,0.00,,,0.00,weatherlink.com 1.10,2013-05-11 07:40:00,
2013-05-11 03:55:00,55.2,54.0,29.90,SE,131,0.0,3.0,97,0.00,,,0.00,weatherlink.com 1.10,2013-05-11 07:55:00,
2013-05-11 04:10:00,55.1,54.0,29.89,SE,130,0.0,3.0,97,0.00,,,0.00,weatherlink.com 1.10,2013-05-11 08:10:00,
2013-05-11 04:25:00,55.2,54.0,29.89,SSW,195,1.0,4.0,97,0.00,,,0.00,weatherlink.com 1.10,2013-05-11 08:25:00,
2013-05-11 04:40:00,55.1,54.0,29.89,SSE,151,0.0,4.0,97,0.00,,,0.00,weatherlink.com 1.10,2013-05-11 08:40:00,
2013-05-11 04:55:00,55.1,54.0,29.88,SSE,162,0.0,1.0,97,0.00,,,0.00,weatherlink.com 1.10,2013-05-11 08:55:00,
2013-05-11 05:10:00,55.7,55.0,29.89,SSE,149,1.0,4.0,98,0.00,,,0.00,weatherlink.com 1.10,2013-05-11 09:10:00,
2013-05-11 05:25:00,56.1,56.0,29.89,SSE,161,1.0,6.0,98,0.00,,,0.00,weatherlink.com 1.10,2013-05-11 09:25:00,
2013-05-11 05:40:00,56.7,56.0,29.90,South,181,1.0,5.0,98,0.00,,,0.00,weatherlink.com 1.10,2013-05-11 09:40:00,
2013-05-11 05:55:00,57.0,57.0,29.89,NW,314,1.0,4.0,98,0.00,,,0.00,weatherlink.com 1.10,2013-05-11 09:55:00,
2013-05-11 06:10:00,57.1,56.0,29.88,South,183,0.0,3.0,97,0.00,,,0.00,weatherlink.com 1.10,2013-05-11 10:10:00,
2013-05-11 06:25:00,57.5,57.0,29.87,SSE,163,1.0,5.0,97,0.00,,,0.00,weatherlink.com 1.10,2013-05-11 10:25:00,
2013-05-11 06:40:00,57.7,57.0,29.88,South,181,0.0,4.0,96,0.00,,,0.00,weatherlink.com 1.10,2013-05-11 10:40:00,
2013-05-11 06:55:00,57.6,56.0,29.89,SSW,207,0.0,5.0,94,0.00,,,0.00,weatherlink.com 1.10,2013-05-11 10:55:00,
2013-05-11 07:10:00,57.8,56.0,29.89,South,169,2.0,7.0,94,0.00,,,0.00,weatherlink.com 1.10,2013-05-11 11:10:00,
2013-05-11 07:25:00,57.5,56.0,29.89,South,177,2.0,4.0,93,0.00,,,0.00,weatherlink.com 1.10,2013-05-11 11:25:00,
2013-05-11 07:40:00,57.2,56.0,29.88,SSW,197,1.0,4.0,94,0.01,,,0.01,weatherlink.com 1.10,2013-05-11 11:40:00,
2013-05-11 07:55:00,57.5,56.0,29.88,SSE,157,6.0,6.0,94,0.01,,,0.01,weatherlink.com 1.10,2013-05-11 11:55:00,
2013-05-11 08:10:00,58.1,57.0,29.88,South,169,1.0,4.0,95,0.01,,,0.01,weatherlink.com 1.10,2013-05-11 12:10:00,
2013-05-11 08:25:00,59.1,58.0,29.88,South,181,0.0,5.0,95,0.01,,,0.01,weatherlink.com 1.10,2013-05-11 12:25:00,
2013-05-11 08:40:00,60.5,59.0,29.87,South,187,2.0,4.0,93,0.00,,,0.01,weatherlink.com 1.10,2013-05-11 12:40:00,
2013-05-11 08:55:00,61.3,59.0,29.86,SSW,204,1.0,7.0,91,0.00,,,0.01,weatherlink.com 1.10,2013-05-11 12:55:00,
2013-05-11 09:10:00,62.0,59.0,29.86,South,179,6.0,6.0,90,0.00,,,0.01,weatherlink.com 1.10,2013-05-11 13:10:00,
2013-05-11 09:26:00,62.8,60.0,29.86,South,176,2.0,5.0,89,0.00,,,0.01,weatherlink.com 1.10,2013-05-11 13:26:00,
2013-05-11 09:41:00,62.7,59.0,29.87,South,184,3.0,12.0,88,0.00,,,0.01,weatherlink.com 1.10,2013-05-11 13:41:00,
2013-05-11 09:56:00,61.9,58.0,29.86,WSW,243,2.0,11.0,88,0.00,,,0.01,weatherlink.com 1.10,2013-05-11 13:56:00,
2013-05-11 10:11:00,61.9,58.0,29.87,SSW,205,3.0,8.0,88,0.00,,,0.01,weatherlink.com 1.10,2013-05-11 14:11:00,
2013-05-11 10:26:00,62.1,59.0,29.86,South,179,1.0,6.0,88,0.00,,,0.01,weatherlink.com 1.10,2013-05-11 14:26:00,
2013-05-11 10:41:00,61.9,58.0,29.88,SSE,148,2.0,9.0,87,0.00,,,0.01,weatherlink.com 1.10,2013-05-11 14:41:00,
2013-05-11 10:56:00,62.0,58.0,29.88,SSW,200,6.0,10.0,85,0.00,,,0.01,weatherlink.com 1.10,2013-05-11 14:56:00,
2013-05-11 11:11:00,62.5,58.0,29.88,SW,224,3.0,11.0,85,0.00,,,0.01,weatherlink.com 1.10,2013-05-11 15:11:00,
2013-05-11 11:26:00,62.5,58.0,29.87,South,182,6.0,13.0,86,0.00,,,0.01,weatherlink.com 1.10,2013-05-11 15:26:00,
2013-05-11 11:41:00,62.5,58.0,29.86,SSE,155,5.0,12.0,85,0.00,,,0.01,weatherlink.com 1.10,2013-05-11 15:41:00,
2013-05-11 11:56:00,63.7,59.0,29.86,SSW,211,3.0,9.0,85,0.00,,,0.01,weatherlink.com 1.10,2013-05-11 15:56:00,
2013-05-11 12:11:00,63.7,59.0,29.85,SSE,167,2.0,10.0,84,0.00,,,0.01,weatherlink.com 1.10,2013-05-11 16:11:00,
2013-05-11 12:26:00,63.5,59.0,29.84,SE,143,4.0,8.0,85,0.00,,,0.01,weatherlink.com 1.10,2013-05-11 16:26:00,
2013-05-11 12:41:00,63.2,59.0,29.84,SW,221,1.0,7.0,86,0.00,,,0.01,weatherlink.com 1.10,2013-05-11 16:41:00,
2013-05-11 12:56:00,62.1,59.0,29.86,SE,141,1.0,8.0,89,0.03,,,0.04,weatherlink.com 1.10,2013-05-11 16:56:00,
2013-05-11 13:11:00,62.8,60.0,29.86,SSE,148,3.0,6.0,90,0.03,,,0.04,weatherlink.com 1.10,2013-05-11 17:11:00,
2013-05-11 13:26:00,62.4,59.0,29.86,SSW,192,1.0,6.0,89,0.03,,,0.04,weatherlink.com 1.10,2013-05-11 17:26:00,
2013-05-11 13:41:00,61.7,59.0,29.86,SSE,160,2.0,7.0,89,0.03,,,0.04,weatherlink.com 1.10,2013-05-11 17:41:00,
2013-05-11 13:56:00,61.6,58.0,29.85,SW,231,0.0,9.0,89,0.00,,,0.04,weatherlink.com 1.10,2013-05-11 17:56:00,
2013-05-11 14:11:00,61.8,59.0,29.85,SSW,207,0.0,8.0,89,0.00,,,0.04,weatherlink.com 1.10,2013-05-11 18:11:00,
2013-05-11 14:26:00,61.3,58.0,29.85,South,173,5.0,16.0,90,0.01,,,0.05,weatherlink.com 1.10,2013-05-11 18:26:00,
2013-05-11 14:41:00,60.3,58.0,29.85,West,280,5.0,10.0,92,0.02,,,0.06,weatherlink.com 1.10,2013-05-11 18:41:00,
2013-05-11 14:56:00,60.1,58.0,29.84,SSE,155,1.0,12.0,94,0.02,,,0.06,weatherlink.com 1.10,2013-05-11 18:56:00,
2013-05-11 15:11:00,60.2,59.0,29.84,South,179,1.0,13.0,94,0.02,,,0.06,weatherlink.com 1.10,2013-05-11 19:11:00,
2013-05-11 15:26:00,60.5,59.0,29.83,SSW,202,3.0,12.0,94,0.01,,,0.06,weatherlink.com 1.10,2013-05-11 19:26:00,
2013-05-11 15:41:00,60.7,59.0,29.81,South,172,7.0,9.0,94,0.00,,,0.06,weatherlink.com 1.10,2013-05-11 19:41:00,
2013-05-11 15:56:00,60.4,59.0,29.81,SW,216,3.0,8.0,94,0.01,,,0.07,weatherlink.com 1.10,2013-05-11 19:56:00,
2013-05-11 16:11:00,60.0,59.0,29.81,ESE,107,2.0,8.0,95,0.02,,,0.08,weatherlink.com 1.10,2013-05-11 20:11:00,
2013-05-11 16:26:00,59.9,59.0,29.79,SSE,160,1.0,10.0,95,0.03,,,0.09,weatherlink.com 1.10,2013-05-11 20:26:00,
2013-05-11 16:41:00,59.7,58.0,29.80,South,183,2.0,9.0,95,0.03,,,0.09,weatherlink.com 1.10,2013-05-11 20:41:00,
2013-05-11 16:56:00,59.6,58.0,29.79,ESE,118,1.0,8.0,95,0.02,,,0.09,weatherlink.com 1.10,2013-05-11 20:56:00,
2013-05-11 17:11:00,59.6,58.0,29.79,SE,146,6.0,6.0,95,0.01,,,0.09,weatherlink.com 1.10,2013-05-11 21:11:00,
2013-05-11 17:26:00,60.7,60.0,29.79,SSW,195,6.0,9.0,96,0.00,,,0.09,weatherlink.com 1.10,2013-05-11 21:26:00,
2013-05-11 17:41:00,60.4,59.0,29.80,SE,140,0.0,9.0,94,0.00,,,0.09,weatherlink.com 1.10,2013-05-11 21:41:00,
2013-05-11 17:56:00,59.9,58.0,29.80,SW,222,1.0,8.0,94,0.00,,,0.09,weatherlink.com 1.10,2013-05-11 21:56:00,
2013-05-11 18:12:00,60.1,58.0,29.80,ESE,122,1.0,8.0,94,0.00,,,0.09,weatherlink.com 1.10,2013-05-11 22:12:00,
2013-05-11 18:26:00,59.5,58.0,29.80,South,189,1.0,9.0,94,0.00,,,0.09,weatherlink.com 1.10,2013-05-11 22:26:00,
2013-05-11 18:41:00,59.0,57.0,29.80,SSW,204,4.0,7.0,94,0.00,,,0.09,weatherlink.com 1.10,2013-05-11 22:41:00,
2013-05-11 18:56:00,58.7,57.0,29.80,SSE,162,1.0,3.0,95,0.00,,,0.09,weatherlink.com 1.10,2013-05-11 22:56:00,
2013-05-11 19:11:00,58.7,57.0,29.80,WSW,250,2.0,6.0,95,0.01,,,0.10,weatherlink.com 1.10,2013-05-11 23:11:00,
2013-05-11 19:26:00,58.7,58.0,29.79,South,173,1.0,7.0,96,0.10,,,0.19,weatherlink.com 1.10,2013-05-11 23:26:00,
2013-05-11 19:41:00,58.8,58.0,29.77,SW,227,1.0,4.0,96,0.26,,,0.37,weatherlink.com 1.10,2013-05-11 23:41:00,
2013-05-11 19:56:00,59.5,59.0,29.77,South,174,0.0,5.0,97,0.35,,,0.44,weatherlink.com 1.10,2013-05-11 23:56:00,
2013-05-11 20:11:00,59.3,58.0,29.76,SW,214,0.0,6.0,96,0.41,,,0.51,weatherlink.com 1.10,2013-05-12 00:11:00,
2013-05-11 20:26:00,60.0,59.0,29.77,South,169,0.0,1.0,97,0.76,,,0.95,weatherlink.com 1.10,2013-05-12 00:26:00,
2013-05-11 20:41:00,60.4,60.0,29.78,SSE,163,0.0,3.0,97,0.65,,,1.02,weatherlink.com 1.10,2013-05-12 00:41:00,
2013-05-11 20:56:00,60.5,60.0,29.78,SSE,150,1.0,6.0,97,0.64,,,1.08,weatherlink.com 1.10,2013-05-12 00:56:00,
2013-05-11 21:11:00,60.7,60.0,29.78,South,188,1.0,4.0,97,0.60,,,1.11,weatherlink.com 1.10,2013-05-12 01:11:00,
2013-05-11 21:26:00,60.8,60.0,29.77,SSE,155,1.0,3.0,97,0.17,,,1.12,weatherlink.com 1.10,2013-05-12 01:26:00,
2013-05-11 21:41:00,60.8,60.0,29.77,South,188,5.0,11.0,97,0.10,,,1.12,weatherlink.com 1.10,2013-05-12 01:41:00,
2013-05-11 21:56:00,61.1,60.0,29.76,South,191,4.0,7.0,97,0.05,,,1.13,weatherlink.com 1.10,2013-05-12 01:56:00,
2013-05-11 22:11:00,61.5,61.0,29.76,SW,234,2.0,8.0,97,0.05,,,1.16,weatherlink.com 1.10,2013-05-12 02:11:00,
2013-05-11 22:26:00,61.5,60.0,29.75,South,178,2.0,7.0,96,0.05,,,1.17,weatherlink.com 1.10,2013-05-12 02:26:00,
2013-05-11 22:41:00,61.1,60.0,29.76,SSE,162,3.0,6.0,96,0.09,,,1.21,weatherlink.com 1.10,2013-05-12 02:41:00,
2013-05-11 22:56:00,60.8,60.0,29.75,South,179,0.0,6.0,96,0.11,,,1.24,weatherlink.com 1.10,2013-05-12 02:56:00,
2013-05-11 23:12:00,60.7,60.0,29.74,WSW,237,3.0,3.0,97,0.13,,,1.29,weatherlink.com 1.10,2013-05-12 03:12:00,
2013-05-11 23:27:00,60.4,59.0,29.74,SSE,147,2.0,4.0,96,0.16,,,1.33,weatherlink.com 1.10,2013-05-12 03:27:00,
2013-05-11 23:42:00,59.9,59.0,29.74,SW,226,2.0,5.0,96,0.11,,,1.33,weatherlink.com 1.10,2013-05-12 03:42:00,
2013-05-11 23:57:00,59.6,59.0,29.74,SSE,160,0.0,3.0,96,0.08,,,1.33,weatherlink.com 1.10,2013-05-12 03:57:00,